Location: Vancouver
(49.2500°N, 123.1330°W)
Time: 12:23:21
(UTC-08:00)

Vanguard 2 Rocket - Visible Passes

Search period start: 04 December 2016 00:00
Search period end: 14 December 2016 00:00
Orbit: 554 x 3328 km, 32.9° (Epoch: 04 December)

Date Brightness Start Highest point End Pass type
(mag) Time Alt. Az. Time Alt. Az. Time Alt. Az.
09 Dec 11.6 06:56:04 10° SSE 06:57:36 10° SSE 06:59:05 10° SE visible
11 Dec 11.3 07:02:23 10° S 07:11:46 17° SSE 07:19:14 10° ESE visible
12 Dec 11.4 06:04:27 10° S 06:11:36 14° SE 06:17:50 10° ESE visible
13 Dec 11.0 07:13:09 10° SSW 07:25:54 24° SSE 07:35:21 10° ESE visible
